Weather History for KTEX - July, 2014

Change the Weather History Date:

Sunday, July 27, 2014

  Actual Average (KMTJ) Record (KMTJ)
Temperature  
Mean Temperature 65 °F 74 °F  
Max Temperature 73 °F 89 °F 93 °F (1996)
Min Temperature 57 °F 58 °F 53 °F (2004)
Degree Days  
Heating Degree Days 0 0  
Month to date heating degree days 0  
Since 1 June heating degree days 39  
Since 1 July heating degree days 0  
Cooling Degree Days 0 9  
Month to date cooling degree days 235  
Year to date cooling degree days 387  
Since 1 June cooling degree days 370  
Growing Degree Days 15 (Base 50)    
Moisture  
Dew Point 47 °F    
Average Humidity 53    
Maximum Humidity 68    
Minimum Humidity 33    
Precipitation  
Precipitation 0.00 in 0.05 in 0.25 in (2012)
Month to date precipitation 0.82  
Year to date precipitation 5.89  
Sea Level Pressure  
Sea Level Pressure 30.55 in    
Wind  
Wind Speed 5 mph (SE)    
Max Wind Speed 16 mph    
Max Gust Speed 24 mph    
Visibility 10 miles    
Events Rain , Thunderstorm    
T = Trace of Precipitation, MM = Missing Value Source: NWS Daily Summary

Daily Weather History Graph

Daily Weather History Graph

Search for Another Location

Airport or City:

Trip Planner

Search our weather history database for the weather conditions in past years. The results will help you decide how hot, cold, wet, or windy it might be!

Date:

Astronomy

Jul. 27, 2014 Rise Set
Actual Time 6:10 AM MDT 8:25 PM MDT
Civil Twilight 5:40 AM MDT 8:54 PM MDT
Nautical Twilight 5:04 AM MDT 9:30 PM MDT
Astronomical Twilight 4:24 AM MDT 10:10 PM MDT
Moon 6:58 AM MDT (7/27) 8:38 PM MDT (7/27)
Length of Visible Light 15h 13m
Length of Day
14h 14m
New Moon, 1% of the Moon is Illuminated
Jul 27
New Moon
Aug 3
First Quarter
Aug 10
Full
Aug 17
Last Quarter
Aug 25
New

Hourly Weather History & Observations

Time (MDT) Temp. Dew Point Humidity Pressure Visibility Wind Dir Wind Speed Gust Speed Precip Events Conditions
12:17 AM 60.8 °F 46.4 °F 59% 30.51 in 10.0 mi SE 6.9 mph - N/A   Clear
1:16 AM 59.0 °F 46.4 °F 63% 30.51 in 10.0 mi ESE 5.8 mph - N/A   Clear
1:37 AM 59.0 °F 46.4 °F 63% 30.51 in 10.0 mi ESE 6.9 mph - N/A   Clear
1:56 AM 59.0 °F 46.4 °F 63% 30.51 in 10.0 mi ESE 5.8 mph - N/A   Clear
2:16 AM 59.0 °F 46.4 °F 63% 30.51 in 10.0 mi East 3.5 mph - N/A   Clear
2:36 AM 59.0 °F 46.4 °F 63% 30.51 in 10.0 mi SSE 3.5 mph - N/A   Scattered Clouds
2:56 AM 59.0 °F 46.4 °F 63% 30.51 in 10.0 mi ESE 8.1 mph - N/A   Clear
3:36 AM 57.2 °F 46.4 °F 67% 30.51 in 10.0 mi ESE 5.8 mph - N/A   Clear
3:57 AM 57.2 °F 46.4 °F 67% 30.51 in 10.0 mi East 4.6 mph - N/A   Clear
4:16 AM 57.2 °F 44.6 °F 63% - 10.0 mi Calm Calm - N/A   Clear
4:36 AM 59.0 °F 44.6 °F 59% 30.51 in 10.0 mi Calm Calm - N/A   Clear
4:57 AM 59.0 °F 44.6 °F 59% 30.51 in 10.0 mi SE 8.1 mph - N/A   Clear
5:36 AM 59.0 °F 44.6 °F 59% 30.52 in 10.0 mi Calm Calm - N/A   Scattered Clouds
5:56 AM 59.0 °F 44.6 °F 59% 30.53 in 10.0 mi ESE 4.6 mph - N/A   Overcast
6:36 AM 60.8 °F 44.6 °F 55% 30.53 in 10.0 mi ESE 9.2 mph - N/A   Mostly Cloudy
6:57 AM 60.8 °F 44.6 °F 55% 30.54 in 10.0 mi East 4.6 mph - N/A   Scattered Clouds
7:16 AM 62.6 °F 44.6 °F 52% 30.55 in 10.0 mi Calm Calm - N/A   Scattered Clouds
7:36 AM 60.8 °F 44.6 °F 55% 30.55 in 10.0 mi Calm Calm - N/A   Clear
7:56 AM 60.8 °F 44.6 °F 55% 30.56 in 10.0 mi Calm Calm - N/A   Scattered Clouds
8:18 AM 60.8 °F 46.4 °F 59% 30.57 in 10.0 mi Calm Calm - N/A   Scattered Clouds
8:57 AM 62.6 °F 46.4 °F 55% 30.57 in 10.0 mi Calm Calm - N/A   Clear
9:16 AM 64.4 °F 48.2 °F 56% 30.58 in 10.0 mi Calm Calm - N/A   Clear
9:36 AM 68.0 °F 48.2 °F 49% 30.57 in 10.0 mi Calm Calm - N/A   Clear
9:56 AM 69.8 °F 44.6 °F 40% 30.57 in 10.0 mi Calm Calm - N/A   Clear
10:16 AM 71.6 °F 48.2 °F 43% 30.57 in 10.0 mi Calm Calm - N/A   Clear
10:36 AM 71.6 °F 44.6 °F 38% 30.57 in 10.0 mi Calm Calm - N/A   Clear
10:58 AM 71.6 °F 44.6 °F 38% 30.57 in 10.0 mi Calm Calm - N/A   Clear
11:17 AM 73.4 °F 42.8 °F 33% 30.57 in 10.0 mi WSW 4.6 mph - N/A Thunderstorm Clear
11:36 AM 71.6 °F 42.8 °F 35% 30.57 in 10.0 mi WSW 4.6 mph - N/A   Clear
11:57 AM 71.6 °F 46.4 °F 41% 30.57 in 10.0 mi West 6.9 mph - N/A Thunderstorm Thunderstorm
12:19 PM 71.6 °F 46.4 °F 41% 30.56 in 10.0 mi Calm Calm - N/A Thunderstorm Thunderstorm
12:36 PM 71.6 °F 48.2 °F 43% 30.56 in 10.0 mi WNW 3.5 mph - N/A Thunderstorm Thunderstorm
12:56 PM 68.0 °F 50.0 °F 52% 30.56 in 10.0 mi SSW 5.8 mph - N/A Rain , Thunderstorm Light Thunderstorms and Rain
1:16 PM 66.2 °F 51.8 °F 60% 30.57 in 10.0 mi South 6.9 mph - N/A Rain , Thunderstorm Light Thunderstorms and Rain
1:36 PM 62.6 °F 51.8 °F 68% 30.56 in 10.0 mi ESE 8.1 mph - N/A Rain , Thunderstorm Light Thunderstorms and Rain
1:57 PM 66.2 °F 50.0 °F 56% 30.57 in 10.0 mi SE 3.5 mph - N/A Thunderstorm Scattered Clouds
2:16 PM 64.4 °F 51.8 °F 64% 30.57 in 10.0 mi ESE 5.8 mph - N/A Thunderstorm Thunderstorm
2:56 PM 66.2 °F 51.8 °F 60% 30.56 in 10.0 mi SE 6.9 mph - N/A Thunderstorm Thunderstorm
3:16 PM 69.8 °F 50.0 °F 49% 30.55 in 10.0 mi Calm Calm - N/A Thunderstorm Thunderstorm
3:56 PM 69.8 °F 46.4 °F 43% 30.55 in 10.0 mi Calm Calm - N/A   Mostly Cloudy
4:16 PM 69.8 °F 48.2 °F 46% 30.55 in 10.0 mi Calm Calm - N/A   Overcast
4:56 PM 69.8 °F 46.4 °F 43% 30.53 in 10.0 mi West 9.2 mph - N/A   Scattered Clouds
5:16 PM 69.8 °F 46.4 °F 43% 30.53 in 10.0 mi West 10.4 mph 19.6 mph N/A   Clear
5:38 PM 69.8 °F 44.6 °F 40% 30.53 in 10.0 mi West 15.0 mph 19.6 mph N/A Thunderstorm Scattered Clouds
5:56 PM 68.0 °F 46.4 °F 46% 30.53 in 10.0 mi WSW 10.4 mph - N/A   Clear
6:16 PM 69.8 °F 46.4 °F 43% 30.53 in 10.0 mi WSW 8.1 mph - N/A   Mostly Cloudy
6:56 PM 68.0 °F 48.2 °F 49% 30.53 in 10.0 mi SE 4.6 mph - N/A   Overcast
7:16 PM 66.2 °F 48.2 °F 52% 30.54 in 10.0 mi ESE 3.5 mph - N/A   Overcast
7:37 PM 66.2 °F 48.2 °F 52% 30.53 in 10.0 mi Calm Calm - N/A   Scattered Clouds
7:56 PM 66.2 °F 48.2 °F 52% 30.53 in 10.0 mi Calm Calm - N/A   Clear
8:37 PM 64.4 °F 46.4 °F 52% 30.55 in 10.0 mi Calm Calm - N/A   Clear
9:36 PM 64.4 °F 44.6 °F 49% 30.57 in 10.0 mi ESE 10.4 mph 18.4 mph N/A   Mostly Cloudy
10:16 PM 64.4 °F 44.6 °F 49% 30.57 in 10.0 mi SSE 16.1 mph 24.2 mph N/A   Mostly Cloudy
10:56 PM 62.6 °F 44.6 °F 52% 30.57 in 10.0 mi East 10.4 mph 17.3 mph N/A   Clear
11:18 PM 60.8 °F 46.4 °F 59% 30.57 in 10.0 mi ENE 3.5 mph - N/A   Clear
11:36 PM 60.8 °F 46.4 °F 59% 30.57 in 10.0 mi ESE 8.1 mph - N/A   Clear
11:56 PM 60.8 °F 46.4 °F 59% 30.58 in 10.0 mi Calm Calm - N/A   Clear